Location: Cactus School
(34.5700°N, 118.0931°W)
Time: 15:16:53
(UTC-07:00)

S-56A Canister/Altair - Pass Details

Date: 14 April 2024
Orbit: 638 x 2488 km, 38.9° (Epoch: 29 May)

Event Time Altitude Azimuth Distance (km) Brightness Sun altitude
Rises 16:55:58 0° 200° (SSW) 3,098 11.0 29.5°
Reaches altitude 10° 16:58:37 10° 183° (S) 2,329 10.2 28.9°
Maximum altitude 17:02:41 22° 134° (SE) 1,920 9.4 28.1°
Drops below altitude 10° 17:07:50 10° 87° (E) 3,041 10.1 27.1°
Sets 17:11:53 0° 74° (ENE) 4,364 10.8 26.2°
